User: anonymous   Login
Location: Unspecified
(0.0000°N, 0.0000°E)
Time: 00:18:56
(UTC+02:00)
Language:

H-2A R/B - Orbit

View from above orbital plane
View from above orbital plane
View from above satellite
View from above satellite

Ground track
Ground track

The orbit data is extracted from the following two-line orbital elements,

1 26899U 01038B   17288.13047104 +.00001017 +00000-0 +31379-3 0  9997
2 26899 028.4525 016.5298 7116129 267.5080 016.9710 02.48186752139468
Epoch (UTC): 15 October 2017 03:07:52
Eccentricity: 0.7116129
inclination: 28.4525°
perigee height: 267 km
apogee height: 33063 km
right ascension of ascending node: 16.5298°
argument of perigee: 267.5080°
revolutions per day: 2.48186752
mean anomaly at epoch: 16.9710°
orbit number at epoch: 13946

The dashed part of the orbit path shows where the satellite is in the earth's shadow,  

DLR